This demonstration page uses our WeatherBlox Daily Observations layout. Learn more.

Left ArrowRight Arrow

Hourly Observations for June 21, 2020

Temp ( °F °C ) Dew Point ( °F °C ) Humidity (%) Winds ( mph kmh ) Pressure ( in mb ) Visibility ( mi km ) Precip ( " mm )
12:53 am 00:53 Clear 81 27.2 64 17.8 57 57 SSE 14 22 29.77 1008 10 16 0.00 0.00
1:53 am 01:53 Clear 79 26.1 64 17.8 60 60 S 14 22 29.75 1008 10 16 0.00 0.00
2:53 am 02:53 Clear 76 24.4 63 17.2 64 64 SE 12 19 29.75 1007 10 16 0.00 0.00
3:53 am 03:53 Clear 74 23.3 62 16.7 67 67 SE 9 15 29.75 1007 10 16 0.00 0.00
4:53 am 04:53 Clear 72 22.2 62 16.7 71 71 SE 7 11 29.75 1007 10 16 0.00 0.00
5:53 am 05:53 Clear 71 21.7 62 16.7 73 73 SE 8 13 29.75 1007 10 16 0.00 0.00
6:53 am 06:53 Sunny 69 20.6 62 16.7 78 78 ESE 5 7 29.76 1008 10 16 0.00 0.00
7:53 am 07:53 Sunny 73 22.8 61 16.1 66 66 SE 9 15 29.77 1008 10 16 0.00 0.00
8:53 am 08:53 Sunny 78 25.6 58 14.4 50 50 SSE 8 13 29.77 1008 10 16 0.00 0.00
9:53 am 09:53 Sunny 85 29.4 55 12.8 36 36 SW 6 9 29.75 1007 10 16 0.00 0.00
10:53 am 10:53 Sunny 92 33.3 52 11.1 26 26 WSW 9 15 29.74 1007 10 16 0.00 0.00
11:53 am 11:53 Sunny 99 37.2 48 8.9 18 18 W 12 19 29.72 1007 10 16 0.00 0.00
12:53 pm 12:53 Sunny 102 38.9 40 4.4 12 12 W 10 17 29.72 1006 10 16 0.00 0.00
1:53 pm 13:53 Sunny 105 40.6 36 2.2 9 9 W 9 15 29.70 1006 10 16 0.00 0.00
2:53 pm 14:53 Sunny 105 40.6 33 0.6 8 8 SW 13 20 29.68 1005 10 16 0.00 0.00
3:53 pm 15:53 Sunny 107 41.7 34 1.1 8 8 SW 15 24 29.65 1004 10 16 0.00 0.00
4:53 pm 16:53 Sunny 105 40.6 33 0.6 8 8 WSW 13 20 29.62 1003 10 16 0.00 0.00
5:53 pm 17:53 Sunny 106 41.1 32 0 8 8 SW 18 30 29.60 1002 10 16 0.00 0.00
6:53 pm 18:53 Sunny 105 40.6 32 0 8 8 WSW 13 20 29.59 1002 10 16 0.00 0.00
7:53 pm 19:53 Sunny 103 39.4 30 -1.1 8 8 WSW 6 9 29.58 1002 10 16 0.00 0.00
8:53 pm 20:53 Sunny 95 35 50 10 22 22 SE 17 28 29.59 1002 10 16 0.00 0.00
9:53 pm 21:53 Clear 91 32.8 52 11.1 26 26 SSE 15 24 29.61 1003 10 16 0.00 0.00
10:53 pm 22:53 Clear 89 31.7 54 12.2 30 30 SSE 18 30 29.63 1004 10 16 0.00 0.00
11:53 pm 23:53 Clear 87 30.6 57 13.9 36 36 S 18 30 29.66 1004 10 16 0.00 0.00

Powered by AerisWeather